Wind_Speed
44 44 45 45 45 45 45 46 47 46 47 47 48 49 50 51 52 52 53 54 54 54 53 53 53 53 53 53 53 54 53 53 53 54 53 53 54 54
44 44 44 44 45 45 45 46 47 48 48 49 49 50 51 52 52 52 52 52 53 53 53 54 54 54 53 54 54 53 53 54 54 54 54 54 53 52
44 44 44 44 45 45 46 47 47 48 48 48 49 50 50 50 50 51 51 51 52 53 53 53 54 54 54 53 53 53 54 54 53 53 53 52 52 52
42 43 43 44 44 45 45 46 46 47 47 46 47 48 47 47 48 49 50 50 51 51 52 52 53 53 53 53 53 53 54 54 54 53 53 52 51 51
41 41 42 42 43 43 43 44 45 46 47 47 46 46 47 47 48 49 48 48 49 49 50 51 52 52 52 53 53 53 54 54 54 53 52 52 52 52
41 41 41 42 42 42 43 44 45 46 47 47 46 46 47 47 47 47 47 48 48 48 49 50 50 50 51 52 52 52 52 53 52 53 52 52 52 52
41 41 41 41 42 42 42 43 44 45 45 45 45 45 45 45 46 46 46 47 46 46 46 47 48 48 48 49 49 50 50 50 50 51 52 52 52 51
39 40 40 40 41 42 43 43 43 43 43 43 44 44 44 44 45 44 44 45 44 44 44 44 45 45 46 46 47 47 48 49 49 50 50 51 51 51
38 39 40 40 41 42 42 42 43 42 42 42 42 42 43 43 44 43 43 43 43 42 42 42 43 43 44 44 45 46 47 48 49 49 50 51 51 51
37 37 38 40 40 41 41 42 42 42 42 42 42 42 42 42 42 42 42 42 42 42 43 42 43 43 43 43 44 45 45 46 46 47 48 49 50 50
36 37 38 39 40 40 41 41 41 42 42 42 42 42 41 41 41 42 42 42 42 42 43 43 43 43 42 42 43 44 44 44 44 44 45 45 46 47
36 37 38 39 39 40 40 40 41 41 41 42 42 42 41 41 42 42 42 42 42 41 42 42 42 42 41 41 42 42 42 41 41 41 41 42 43 44
37 38 39 39 40 40 40 40 40 40 41 41 41 41 41 40 41 42 41 41 41 40 41 41 41 41 41 40 39 40 39 39 38 38 38 39 39 39
37 37 38 39 39 40 40 40 40 40 40 40 40 39 39 40 40 41 40 40 40 39 39 39 39 39 39 38 38 37 36 36 36 36 37 38 38 37
36 36 37 37 38 38 38 39 39 39 39 39 39 39 39 39 40 39 39 39 39 39 37 37 37 37 37 37 36 34 34 34 34 34 35 36 36 35
35 36 36 36 36 36 37 37 38 38 39 38 38 39 39 39 38 38 38 37 37 37 37 36 36 36 35 36 35 33 33 32 32 32 32 32 32 31
35 35 35 35 36 36 36 36 37 37 37 37 38 38 38 38 37 36 36 36 35 35 34 34 34 35 34 34 33 32 32 31 31 30 30 30 30 29
34 34 34 34 35 35 35 35 35 36 36 36 36 36 36 36 35 35 34 34 33 33 33 32 32 32 31 31 31 30 29 29 28 28 27 27 27 26
33 33 34 34 34 34 34 34 34 34 34 34 34 33 33 33 32 32 32 32 32 31 30 30 30 29 28 28 28 28 27 27 25 24 24 23 23 23
32 32 33 33 33 33 32 32 32 32 31 31 31 31 30 30 30 30 30 30 30 29 28 27 26 26 26 25 25 25 25 25 25 25 24 22 22 21
31 32 32 31 30 30 30 30 30 30 29 29 29 29 28 28 28 28 28 28 28 27 26 25 24 24 24 24 23 23 24 24 24 23 23 22 21 21
30 30 30 29 28 28 28 28 28 28 28 27 27 27 26 26 26 26 26 26 26 25 24 23 22 22 22 22 22 22 22 22 21 21 21 20 20 20
29 29 28 27 26 26 26 27 27 26 26 25 25 25 25 24 24 24 24 23 22 22 21 20 20 20 20 20 20 21 21 21 21 20 19 19 19 18
Wind_Direction
270 271 271 270 271 271 272 272 272 272 273 274 275 276 277 276 275 274 273 272 272 271 272 272 271 271 270 269 268 268 269 269 268 268 268 268 268 269
270 271 272 271 271 272 272 273 273 274 273 274 275 276 278 278 276 275 274 273 273 272 272 272 271 271 270 269 268 268 268 268 268 268 268 268 268 268
270 271 271 272 273 273 273 274 274 275 275 276 277 278 278 279 278 276 275 275 275 274 273 272 271 269 269 268 268 267 267 267 267 267 268 268 267 267
272 272 272 272 273 273 274 275 275 276 277 278 278 279 279 279 279 278 277 277 277 275 274 273 271 269 268 267 267 267 267 267 267 267 267 266 267 266
273 272 273 273 275 275 275 275 276 276 277 278 278 279 280 280 280 279 278 278 278 277 275 273 272 270 268 268 268 268 267 267 268 267 265 265 266 266
273 273 273 273 275 275 275 276 276 277 278 278 279 280 280 280 280 279 278 279 279 278 276 275 273 271 270 269 269 269 269 268 267 267 266 266 265 265
273 274 274 274 274 275 276 277 277 278 278 278 280 280 280 279 280 280 279 280 279 278 277 276 275 273 272 271 270 270 270 269 268 266 266 266 265 264
274 275 276 277 276 275 275 277 278 280 279 280 281 281 280 280 281 281 281 280 279 278 277 278 277 276 274 273 271 270 270 269 268 267 267 266 266 265
275 276 276 277 277 277 276 278 279 280 281 282 282 282 281 281 282 283 282 281 280 279 279 279 278 278 276 275 273 272 271 271 270 270 268 268 268 267
275 276 277 278 279 278 277 278 280 281 282 282 284 284 283 282 282 282 282 281 281 282 282 280 279 279 277 276 276 275 273 272 271 270 269 269 269 268
276 276 278 279 280 280 279 279 280 281 282 283 285 285 284 283 282 282 283 282 282 283 282 282 280 278 277 278 278 277 275 273 272 273 273 271 270 268
276 277 278 279 280 281 282 282 282 282 283 284 284 284 284 283 283 283 283 283 283 282 282 282 280 278 277 277 277 276 275 273 272 273 274 273 271 269
277 278 279 280 281 282 283 283 283 283 283 284 284 284 283 284 284 284 284 283 283 283 282 282 281 280 279 277 276 276 275 273 273 273 274 273 272 270
278 280 281 282 283 283 283 284 284 284 285 284 283 283 284 284 284 284 283 284 285 285 283 282 281 280 279 277 276 275 275 275 275 274 274 274 273 270
279 280 281 283 284 285 285 284 285 286 286 285 284 284 285 285 284 283 282 283 284 284 284 283 282 281 280 279 278 276 274 275 277 277 276 275 275 273
279 281 283 284 284 285 285 286 286 287 288 287 286 286 286 285 284 285 285 284 284 285 285 284 284 283 282 281 279 276 275 275 276 276 275 275 275 273
280 281 283 284 285 286 287 287 287 287 288 288 288 287 287 286 284 285 287 286 285 285 284 283 284 283 282 281 279 277 276 277 277 277 276 275 274 272
282 283 284 284 285 287 288 288 289 289 289 289 289 289 288 286 285 285 286 287 286 285 284 283 283 282 281 281 280 278 276 277 278 277 275 273 271 269
283 284 285 285 286 287 288 289 290 290 290 290 290 290 289 288 286 285 286 287 287 286 285 284 283 281 280 281 281 280 277 276 276 278 277 275 271 268
286 286 287 288 288 288 288 289 290 291 291 291 291 291 290 290 289 287 287 288 287 287 285 284 282 280 280 281 281 280 279 277 276 276 275 272 269 266
287 287 289 290 290 290 290 291 292 292 292 292 291 291 291 290 291 291 289 288 287 286 284 282 281 280 280 281 281 280 279 278 277 275 274 269 266 263
288 288 289 291 291 291 293 294 295 295 293 293 293 292 291 291 291 292 292 291 289 286 284 282 281 281 281 282 282 281 280 278 276 275 272 268 264 260
288 288 289 289 290 291 292 294 296 296 295 295 295 295 293 292 292 293 294 293 290 287 284 282 282 284 285 284 283 283 281 279 275 273 270 267 262 257
Height
5643 5642 5642 5641 5640 5640 5639 5639 5639 5638 5638 5636 5634 5632 5629 5628 5626 5625 5624 5623 5622 5621 5620 5619 5618 5617 5617 5616 5615 5615 5614 5614 5614 5614 5614 5615 5614 5614
5632 5631 5631 5630 5629 5628 5627 5626 5625 5624 5624 5623 5621 5618 5616 5614 5611 5610 5609 5608 5606 5605 5604 5603 5602 5601 5601 5600 5600 5599 5599 5599 5599 5599 5599 5599 5599 5599
5621 5621 5620 5619 5618 5616 5615 5614 5613 5611 5610 5610 5608 5605 5602 5600 5598 5596 5594 5593 5591 5589 5588 5587 5586 5585 5585 5584 5584 5584 5584 5583 5583 5583 5583 5584 5584 5585
5610 5609 5608 5607 5606 5605 5603 5602 5601 5599 5598 5597 5595 5592 5590 5587 5585 5583 5581 5578 5576 5574 5573 5571 5570 5569 5569 5569 5569 5568 5568 5568 5568 5568 5568 5569 5569 5569
5599 5598 5597 5596 5595 5594 5592 5591 5589 5587 5586 5584 5583 5580 5577 5574 5572 5570 5567 5565 5562 5560 5558 5556 5555 5554 5554 5553 5553 5552 5552 5553 5553 5552 5552 5553 5554 5554
5588 5587 5586 5585 5584 5582 5581 5579 5577 5576 5574 5572 5570 5567 5565 5562 5559 5557 5555 5552 5549 5546 5543 5541 5540 5539 5538 5538 5538 5537 5536 5536 5536 5536 5536 5537 5538 5538
5577 5576 5575 5574 5572 5571 5569 5568 5566 5563 5561 5559 5557 5555 5552 5549 5547 5544 5542 5539 5536 5533 5531 5528 5527 5525 5524 5522 5522 5521 5521 5521 5521 5521 5521 5521 5522 5523
5566 5565 5564 5562 5561 5559 5558 5556 5554 5552 5549 5547 5545 5542 5539 5536 5534 5531 5528 5526 5525 5523 5519 5516 5513 5512 5510 5509 5508 5507 5506 5506 5506 5506 5506 5506 5507 5507
5555 5554 5553 5551 5549 5547 5546 5544 5542 5539 5537 5535 5532 5529 5527 5524 5521 5518 5515 5512 5511 5509 5506 5504 5501 5499 5497 5495 5494 5493 5493 5492 5491 5491 5491 5491 5491 5491
5544 5543 5542 5540 5537 5536 5534 5532 5530 5527 5525 5523 5520 5517 5514 5511 5508 5505 5502 5500 5498 5496 5492 5491 5489 5487 5485 5483 5481 5480 5479 5478 5477 5476 5476 5476 5476 5476
5534 5532 5531 5529 5526 5524 5523 5521 5518 5515 5512 5510 5507 5504 5501 5498 5495 5493 5490 5488 5487 5484 5480 5478 5477 5475 5474 5471 5469 5466 5465 5464 5463 5462 5461 5461 5461 5461
5523 5522 5520 5517 5515 5513 5510 5508 5506 5503 5500 5498 5495 5492 5489 5486 5483 5480 5478 5475 5473 5472 5469 5466 5464 5462 5462 5461 5457 5455 5453 5452 5450 5450 5448 5447 5447 5447
5512 5511 5508 5506 5504 5501 5499 5496 5494 5491 5489 5486 5483 5480 5477 5474 5471 5468 5465 5463 5461 5459 5457 5454 5452 5450 5448 5449 5447 5444 5442 5440 5439 5438 5436 5435 5434 5434
5501 5500 5497 5495 5493 5490 5487 5485 5482 5480 5477 5474 5471 5468 5465 5463 5460 5456 5454 5451 5449 5447 5445 5442 5440 5439 5437 5436 5436 5434 5432 5430 5428 5427 5425 5424 5422 5422
5490 5488 5486 5484 5481 5479 5476 5474 5471 5468 5465 5463 5460 5457 5454 5451 5448 5445 5443 5440 5438 5436 5434 5431 5429 5428 5426 5425 5424 5423 5422 5420 5418 5416 5415 5413 5412 5411
5479 5478 5476 5473 5471 5468 5465 5462 5460 5457 5454 5452 5449 5446 5443 5440 5437 5435 5433 5430 5428 5426 5423 5421 5419 5417 5416 5414 5413 5413 5412 5410 5409 5406 5405 5403 5402 5401
5469 5467 5465 5463 5460 5458 5455 5452 5449 5446 5444 5441 5438 5435 5432 5429 5427 5424 5422 5420 5418 5416 5415 5412 5409 5407 5406 5405 5404 5403 5402 5400 5399 5397 5395 5394 5393 5392
5459 5457 5455 5453 5450 5448 5445 5442 5439 5436 5433 5430 5427 5425 5422 5419 5417 5415 5412 5410 5408 5407 5405 5403 5401 5399 5397 5396 5395 5394 5392 5391 5389 5387 5386 5386 5385 5384
5449 5447 5445 5443 5440 5438 5435 5432 5429 5426 5423 5420 5418 5415 5412 5410 5407 5405 5403 5401 5399 5397 5395 5393 5391 5390 5389 5388 5386 5384 5384 5382 5381 5380 5378 5378 5377 5377
5439 5437 5435 5433 5430 5428 5425 5423 5420 5417 5414 5411 5409 5406 5404 5401 5398 5396 5394 5392 5390 5388 5386 5385 5383 5382 5381 5380 5379 5377 5375 5374 5373 5372 5371 5371 5370 5370
5430 5428 5426 5423 5421 5419 5416 5414 5411 5409 5406 5403 5401 5398 5395 5393 5391 5388 5386 5383 5381 5380 5378 5377 5375 5374 5373 5372 5371 5370 5369 5367 5366 5365 5365 5364 5364 5364
5421 5419 5417 5415 5413 5411 5408 5406 5403 5401 5398 5395 5393 5390 5388 5385 5383 5381 5378 5376 5374 5372 5371 5370 5368 5367 5366 5365 5364 5363 5362 5360 5359 5358 5358 5358 5357 5358
5413 5411 5409 5407 5405 5403 5401 5398 5396 5393 5391 5388 5386 5383 5381 5378 5376 5374 5371 5369 5367 5365 5364 5363 5362 5361 5360 5358 5357 5356 5355 5354 5353 5353 5352 5351 5351 5352